Regional Weather Roundup
Issued by NWS

Home | Current Version | Previous Version | Graphics & Text | Print | Product List | Glossary On
Versions: 1 2 3 4 5 6 7 8 9 10 11 12 13 14 15 16 17 18 19 20 21 22 23 24 25 26 27 28 29 30 31 32 33 34 35 36 37 38 39 40 41 42 43 44 45 46 47 48 49 50
000
ASUS43 KOAX 111310
RWRNE

WEATHER ROUNDUP FOR NEBRASKA
NATIONAL WEATHER SERVICE OMAHA NE
700 AM CST MON DEC 11 2017

NOTES: SATELLITE DATA IS BEING USED TO AUGMENT CLOUD COVER ABOVE
       12000 FEET.
       "FAIR" INDICATES FEW OR NO CLOUDS BELOW 12,000 FEET WITH NO
       SIGNIFICANT WEATHER AND/OR OBSTRUCTIONS TO VISIBILITY.


NEZ001>004-019>022-054>056-111400-
NEBRASKA PANHANDLE

CITY           SKY/WX    TMP DP  RH WIND       PRES   REMARKS
SCOTTSBLUFF    CLEAR     31  11  43 NW15      30.28R WCI  20
ALLIANCE       CLOUDY    31  14  49 W14       30.21F WCI  21
CHADRON        CLOUDY    42  15  33 W18       30.24R
GORDON         FAIR      40  19  43 W14       30.17S WCI  32
KIMBALL        CLOUDY    39   4  23 NW16      30.28S WCI  30
SIDNEY         CLOUDY    33   7  33 W13       30.26R WCI  24
$$

NEZ057>060-069>072-079>082-111400-
SOUTHWEST NEBRASKA

CITY           SKY/WX    TMP DP  RH WIND       PRES   REMARKS
NORTH PLATTE   CLOUDY    28  18  66 NW6       30.17S WCI  22
IMPERIAL       PTCLDY    42   9  25 W14       30.22R
LEXINGTON      CLOUDY    36  15  42 W13       30.14R WCI  28
MCCOOK         PTCLDY    39  13  34 W15       30.20R WCI  31
OGALLALA       CLOUDY    33  12  42 W7        30.21S WCI  27
$$

NEZ005>010-023>029-035>040-094-111400-
NORTH CENTRAL NEBRASKA

CITY           SKY/WX    TMP DP  RH WIND       PRES   REMARKS
VALENTINE      CLEAR     46  16  30 NW21G33   30.09R
AINSWORTH      CLEAR     40  19  44 NW12      30.08R WCI  33
BROKEN BOW     CLOUDY    50  16  25 NW22G33   30.07F
O`NEILL        CLEAR     44  21  40 NW23G33   30.02R
ORD            CLOUDY    47  15  27 W20G31    30.02F
THEDFORD       CLOUDY    50  18  27 NW22G31   30.11S
$$

NEZ041-046>049-061>064-073>077-083>087-111400-
SOUTH CENTRAL NEBRASKA

CITY           SKY/WX    TMP DP  RH WIND       PRES   REMARKS
GRAND ISLAND   CLOUDY    40  19  43 W12       30.05S WCI  33
AURORA         CLOUDY    42  16  35 W16       30.03S
HASTINGS       CLOUDY    46  16  30 NW20      30.07S
HEBRON         CLOUDY    46  15  29 NW13      30.05S
HOLDREGE       PTCLDY    43  18  36 NW14G20   30.13S
KEARNEY        CLOUDY    44  15  31 W13       30.10S
YORK           CLOUDY    43  18  36 W17       30.01S
$$

NEZ011>018-030>034-042>045-111400-
NORTHEAST NEBRASKA

CITY           SKY/WX    TMP DP  RH WIND       PRES   REMARKS
NORFOLK        CLEAR     45  19  35 NW24G33   29.93S
ALBION         CLOUDY    48  18  29 NW20G29   29.99R
BLAIR          PTCLDY    40  20  44 W12G20    29.91R WCI  33
COLUMBUS       PTCLDY    45  19  35 W15       29.97S
FREMONT        PTCLDY    38  18  45 W17       29.93R WCI  28
TEKAMAH        CLOUDY    43  20  39 NW25G35   29.91R
WAYNE          CLEAR     43  20  40 NW16G26   29.93R
$$

NEZ050>053-065>068-078-088>093-111400-
SOUTHEAST NEBRASKA

CITY           SKY/WX    TMP DP  RH WIND       PRES   REMARKS
LINCOLN        CLOUDY    45  16  31 W16G25    29.98F
OMAHA EPPLEY   PTCLDY    44  17  33 W17G23    29.91R
BEATRICE       CLEAR     36  18  47 W10       30.00F WCI  28
FALLS CITY     CLOUDY    37  16  42 W14       29.95R WCI  28
NEBRASKA CITY  CLEAR     41  19  41 W18       29.93S
PLATTSMOUTH    MOCLDY    42  19  38 W16G22    29.91S
$$

NEZ044-045-051>053-067-111400-
OMAHA AREA

CITY           SKY/WX    TMP DP  RH WIND       PRES   REMARKS
OMAHA EPPLEY   PTCLDY    44  17  33 W17G23    29.91R
BLAIR          PTCLDY    40  20  44 W12G20    29.91R WCI  33
FREMONT        PTCLDY    38  18  45 W17       29.93R WCI  28
MILLARD        PTCLDY    44  20  38 NW10      29.93R
OFFUTT AFB     CLOUDY    41  17  38 W12       29.90S
PLATTSMOUTH    MOCLDY    42  19  38 W16G22    29.91S
WAHOO          FAIR      45  17  32 NW15      29.94R
$$




USA.gov is the U.S. government's official web portal to all federal, state and local government web resources and services.